EW6790 Weather Reports


time (UTC)temp
C
wind
direction
speed
KPH
gust
KPH
rain 1hr
cm
rain 24hr
cm
rain mn
cm
humidity
%
barometer
mb
20260901190101 30 140 0.0 6.4 0.00 0.00 0.00 71 1011.5
20260901184546 30 88 4.8 11.3 0.00 0.00 0.00 67 1011.3
20260901183045 30 117 1.6 11.3 0.00 0.00 0.00 68 1011.3
20260901181543 29 122 3.2 8.0 0.00 0.00 0.00 70 1011.5
20260901180038 29 85 0.0 3.2 0.00 0.00 0.00 76 1011.9
20260901174545 29 75 3.2 8.0 0.00 0.00 0.00 73 1012.1
20260901173033 30 79 1.6 4.8 0.00 0.00 0.00 70 1012.3
20260901171536 29 13 0.0 8.0 0.00 0.00 0.00 73 1012.5
20260901170024 29 86 0.0 3.2 0.00 0.00 0.00 75 1012.5
20260901164515 29 118 3.2 6.4 0.00 0.00 0.00 75 1012.3
20260901163102 29 31 1.6 6.4 0.00 0.00 0.00 75 1012.2
20260901161611 29 329 0.0 3.2 0.00 0.00 0.00 76 1012.2
20260901160038 29 80 1.6 4.8 0.00 0.00 0.00 74 1012.3
20260901154538 28 174 0.0 4.8 0.00 0.00 0.00 76 1012.3
20260901153019 28 115 1.6 4.8 0.00 0.00 0.00 78 1012.3
20260901151518 27 150 0.0 3.2 0.00 0.00 0.00 78 1012.3
20260901150100 27 160 3.2 6.4 0.00 0.00 0.00 80 1012.4
20260901144600 26 205 3.2 6.4 0.00 0.00 0.00 82 1012.3
20260901143043 25 157 1.6 6.4 0.00 0.00 0.00 84 1012.4
20260901141543 25 147 1.6 6.4 0.00 0.00 0.00 84 1012.6
20260901140028 24 132 3.2 6.4 0.00 0.00 0.00 84 1012.7
20260901134522 23 209 0.0 0.0 0.00 0.00 0.00 87 1013.0
20260901133003 21 209 0.0 0.0 0.00 0.00 0.00 82 1013.1
20260901131507 20 209 0.0 0.0 0.00 0.00 0.00 79 1012.9
20260901130056 -17 0.0 0.0 0.00 0.00 0.00 1012.9
20260901124539 -17 0.0 0.0 0.00 0.00 0.00 1012.8
20260901123018 -17 0.0 0.0 0.00 0.00 0.00 1012.8
20260901121517 -17 0.0 0.0 0.00 0.00 0.00 1012.6
20260901120058 -17 0.0 0.0 0.00 0.00 0.00 1012.4
20260901114555 -17 0.0 0.0 0.00 0.00 0.00 1012.4
20260901113056 -17 0.0 0.0 0.00 0.00 0.00 1012.0
20260901111545 -17 0.0 0.0 0.00 0.00 0.00 1012.1
20260901110040 -17 0.0 0.0 0.00 0.00 0.00 1011.8
20260901104536 -17 0.0 0.0 0.00 0.00 0.00 1012.0
20260901103032 -17 0.0 0.0 0.00 0.00 0.00 1011.9
20260901101528 -17 0.0 0.0 0.00 0.00 0.00 1011.7
20260901100009 18 202 0.0 0.0 0.00 0.00 0.00 59 1011.8
20260901094507 18 194 0.0 1.6 0.00 0.00 0.00 58 1011.8
20260901093106 18 194 0.0 1.6 0.00 0.00 0.00 56 1011.8
20260901091549 18 195 0.0 4.8 0.00 0.00 0.00 59 1011.7
20260901090049 18 205 1.6 4.8 0.00 0.00 0.00 60 1011.8
20260901084532 19 204 3.2 6.4 0.00 0.00 0.00 58 1011.8
20260901083035 18 178 0.0 1.6 0.00 0.00 0.00 55 1011.7
20260901081515 18 178 0.0 3.2 0.00 0.00 0.00 57 1011.5
20260901080010 18 209 1.6 4.8 0.00 0.00 0.00 57 1011.8
20260901074552 18 188 1.6 4.8 0.00 0.00 0.00 65 1011.8
20260901073051 18 158 1.6 3.2 0.00 0.00 0.00 62 1011.8
20260901071535 19 155 1.6 3.2 0.00 0.00 0.00 61 1011.8
20260901070032 19 154 0.0 1.6 0.00 0.00 0.00 56 1011.9
20260901064523 19 153 1.6 3.2 0.00 0.00 0.00 62 1012.1
20260901063011 18 154 0.0 3.2 0.00 0.00 0.00 70 1012.1
20260901061554 20 311 0.0 1.6 0.00 0.00 0.00 77 1012.2
20260901060050 20 311 0.0 0.0 0.00 0.00 0.00 76 1012.3
20260901054533 20 311 0.0 0.0 0.00 0.00 0.00 85 1012.1
20260901053026 20 311 0.0 0.0 0.00 0.00 0.00 82 1011.8
20260901051510 20 311 0.0 1.6 0.00 0.00 0.00 82 1011.7
20260901050006 21 311 0.0 1.6 0.00 0.00 0.00 83 1011.6
20260901044546 21 321 1.6 1.6 0.00 0.00 0.00 86 1011.5
20260901043044 21 321 0.0 0.0 0.00 0.00 0.00 86 1011.3
20260901041526 21 321 0.0 0.0 0.00 0.00 0.00 87 1011.3
20260901040022 21 321 0.0 0.0 0.00 0.00 0.00 87 1011.2
20260901034506 22 321 0.0 0.0 0.00 0.00 0.00 87 1011.2
20260901033003 22 321 0.0 1.6 0.00 0.00 0.00 87 1011.3
20260901031553 22 321 0.0 0.0 0.00 0.00 0.00 86 1011.2
20260901030040 22 322 0.0 0.0 0.00 0.00 0.00 86 1011.1
20260901024525 23 322 0.0 0.0 0.00 0.00 0.00 84 1011.0
20260901023018 23 322 0.0 0.0 0.00 0.00 0.00 83 1010.9
20260901021600 23 322 3.2 4.8 0.00 0.00 0.00 84 1011.0
20260901021503 23 321 3.2 4.8 0.00 0.00 0.00 84 1010.9
20260901020100 23 321 0.0 0.0 0.00 0.00 0.00 82 1010.8
20260901014537 25 323 4.8 8.0 0.00 0.00 0.00 79 1010.6
20260901013035 24 331 0.0 1.6 0.00 0.00 0.00 83 1010.6
20260901011513 25 331 0.0 1.6 0.00 0.00 0.00 79 1010.3
20260901010022 25 331 0.0 1.6 0.00 0.00 0.00 76 1010.1
20260901004551 26 331 1.6 6.4 0.00 0.00 0.00 71 1010.1
20260901003049 27 328 0.0 4.8 0.00 0.00 0.00 69 1010.1
20260901001529 28 326 0.0 3.2 0.00 0.00 0.00 69 1010.0
20260901000029 29 328 0.0 4.8 0.00 0.00 0.00 67 1010.0
20260831234511 30 328 1.6 4.8 0.00 0.00 0.00 66 1010.2
20260831233009 31 317 0.0 4.8 0.00 0.00 0.00 63 1010.1
20260831231556 31 295 0.0 1.6 0.00 0.00 0.00 61 1010.1
20260831230114 31 330 0.0 4.8 0.00 0.00 0.00 59 1010.0
20260831224531 31 323 1.6 3.2 0.00 0.00 0.00 59 1009.9
20260831223029 31 286 0.0 1.6 0.00 0.00 0.00 64 1009.9
20260831221523 31 288 3.2 4.8 0.00 0.00 0.00 57 1009.8
20260831220011 31 291 0.0 8.0 0.00 0.00 0.00 62 1009.8
20260831214551 31 266 1.6 6.4 0.00 0.00 0.00 58 1009.8
20260831213054 31 319 0.0 6.4 0.00 0.00 0.00 60 1009.8
20260831211529 30 319 1.6 8.0 0.00 0.00 0.00 63 1009.7
20260831210026 30 322 1.6 6.4 0.00 0.00 0.00 64 1009.7
20260831204507 29 259 1.6 6.4 0.00 0.00 0.00 74 1009.7
20260831203003 29 294 1.6 6.4 0.00 0.00 0.00 75 1009.6
20260831201545 28 304 0.0 6.4 0.00 0.00 0.00 75 1009.6
20260831200040 28 323 4.8 12.9 0.00 0.00 0.00 77 1009.4
20260831194537 27 322 3.2 14.5 0.00 0.00 0.00 81 1009.6
20260831193016 27 321 4.8 11.3 0.00 0.00 0.00 86 1009.3
20260831191556 26 268 3.2 11.3 0.00 0.00 0.00 87 1009.2